Location: Napier
(39.4830°S, 176.9170°E)
Time: 03:13:22
(UTC+12:00)

Envisat - Pass Details

Date: 15 August 2020
Orbit: 764 x 766 km, 98.1° (Epoch: 20 September)

Event Time Altitude Azimuth Distance (km) Brightness Sun altitude
Rises 18:22:29 0° 168° (SSE) 3,270 6.0 -9.9°
Reaches altitude 10° 18:24:49 10° 167° (SSE) 2,337 5.3 -10.3°
Maximum altitude 18:30:00 87° 77° (ENE) 782 3.0 -11.3°
Drops below altitude 10° 18:35:06 10° 347° (NNW) 2,307 5.8 -12.3°
Sets 18:37:23 0° 346° (NNW) 3,225 6.5 -12.7°
